FW6530 Weather Reports


Display with metric or nautical units.
time (UTC)temp
F
wind
direction
speed
MPH
gust
MPH
rain 1hr
in
rain 24hr
in
rain mn
in
humidity
%
barometer
mb
20260504223035 66 159 9.0 23.0 0.00 0.00 0.00 20 1014.7
20260504222524 66 157 13.0 23.0 0.00 0.00 0.00 20 1014.7
20260504222028 66 178 7.0 21.0 0.00 0.00 0.00 20 1014.9
20260504221607 66 158 10.0 22.0 0.00 0.00 0.00 19 1014.9
20260504221024 66 129 11.0 22.0 0.00 0.00 0.00 19 1015.1
20260504220523 67 117 9.0 19.0 0.00 0.00 0.00 19 1015.2
20260504220042 67 114 10.0 21.0 0.00 0.00 0.00 19 1015.2
20260504215527 67 180 9.0 25.0 0.00 0.00 0.00 19 1015.4
20260504215024 67 140 13.0 25.0 0.00 0.00 0.00 18 1015.4
20260504214538 68 122 9.0 21.0 0.00 0.00 0.00 17 1015.2
20260504214024 68 148 7.0 19.0 0.00 0.00 0.00 16 1015.2
20260504213524 68 188 8.0 19.0 0.00 0.00 0.00 16 1015.2
20260504213045 68 147 8.0 36.0 0.00 0.00 0.00 16 1015.4
20260504212525 68 175 10.0 36.0 0.00 0.00 0.00 16 1015.5
20260504212024 68 138 11.0 28.0 0.00 0.00 0.00 17 1015.1
20260504211536 67 132 12.0 26.0 0.00 0.00 0.00 17 1015.6
20260504211024 67 186 11.0 26.0 0.00 0.00 0.00 18 1015.7
20260504210525 67 142 12.0 20.0 0.00 0.00 0.00 17 1015.8
20260504210035 67 123 9.0 20.0 0.00 0.00 0.00 18 1015.9
20260504205524 67 162 8.0 20.0 0.00 0.00 0.00 17 1016.0
20260504205029 67 89 11.0 23.0 0.00 0.00 0.00 18 1016.1
20260504204539 67 136 11.0 23.0 0.00 0.00 0.00 18 1016.1
20260504204024 67 141 10.0 20.0 0.00 0.00 0.00 18 1016.2
20260504203524 67 158 10.0 20.0 0.00 0.00 0.00 19 1016.4
20260504203041 67 209 10.0 20.0 0.00 0.00 0.00 20 1016.4
20260504202524 66 157 12.0 21.0 0.00 0.00 0.00 20 1016.4
20260504202024 67 132 7.0 21.0 0.00 0.00 0.00 20 1016.4
20260504201536 66 188 10.0 18.0 0.00 0.00 0.00 20 1016.5
20260504201023 66 147 8.0 16.0 0.00 0.00 0.00 19 1016.4
20260504200524 67 168 9.0 17.0 0.00 0.00 0.00 19 1016.5
20260504200036 66 148 7.0 21.0 0.00 0.00 0.00 20 1016.5
20260504195522 66 168 11.0 21.0 0.00 0.00 0.00 21 1016.6
20260504195021 65 126 11.0 21.0 0.00 0.00 0.00 21 1016.5
20260504194535 65 113 12.0 21.0 0.00 0.00 0.00 21 1017.0
20260504194025 66 115 10.0 23.0 0.00 0.00 0.00 22 1016.8
20260504193525 65 145 12.0 23.0 0.00 0.00 0.00 22 1017.0
20260504193046 66 159 11.0 22.0 0.00 0.00 0.00 22 1017.0
20260504192524 66 184 11.0 22.0 0.00 0.00 0.00 21 1016.8
20260504192028 66 134 10.0 20.0 0.00 0.00 0.00 23 1016.8
20260504191605 66 112 10.0 22.0 0.00 0.00 0.00 23 1016.9
20260504191024 66 128 9.0 23.0 0.00 0.00 0.00 23 1017.2
20260504190524 66 116 9.0 23.0 0.00 0.00 0.00 23 1017.2
20260504190040 65 173 10.0 22.0 0.00 0.00 0.00 22 1017.0
20260504185523 65 123 9.0 25.0 0.00 0.00 0.00 23 1017.3
20260504185024 65 93 8.0 25.0 0.00 0.00 0.00 24 1017.2
20260504184549 65 138 9.0 21.0 0.00 0.00 0.00 24 1017.3
20260504184024 65 162 9.0 21.0 0.00 0.00 0.00 25 1017.4
20260504183521 65 150 11.0 18.0 0.00 0.00 0.00 25 1017.4
20260504183035 64 124 9.0 19.0 0.00 0.00 0.00 26 1017.5
20260504182527 64 136 10.0 19.0 0.00 0.00 0.00 25 1017.4
20260504182024 64 128 10.0 18.0 0.00 0.00 0.00 25 1017.6
20260504181538 64 142 8.0 16.0 0.00 0.00 0.00 24 1017.5
20260504181026 64 123 8.0 17.0 0.00 0.00 0.00 25 1017.6
20260504180525 64 112 9.0 18.0 0.00 0.00 0.00 24 1017.6
20260504180038 64 110 9.0 18.0 0.00 0.00 0.00 25 1017.7
20260504175523 64 139 10.0 17.0 0.00 0.00 0.00 26 1017.8
20260504175024 64 157 8.0 16.0 0.00 0.00 0.00 27 1017.8
20260504174537 64 132 9.0 15.0 0.00 0.00 0.00 29 1018.1
20260504174024 64 126 5.0 14.0 0.00 0.00 0.00 30 1017.9
20260504173523 63 182 5.0 14.0 0.00 0.00 0.00 32 1018.0
20260504173035 63 105 5.0 13.0 0.00 0.00 0.00 31 1018.0
20260504172523 63 156 7.0 12.0 0.00 0.00 0.00 31 1017.9
20260504172024 63 116 4.0 16.0 0.00 0.00 0.00 37 1018.1
20260504171540 62 93 6.0 16.0 0.00 0.00 0.00 36 1018.0
20260504171028 63 132 4.0 9.0 0.00 0.00 0.00 39 1018.0
20260504170527 62 88 2.0 9.0 0.00 0.00 0.00 40 1018.2
20260504151022 55 150 3.0 8.0 0.00 0.00 0.00 58 1019.1
20260504150526 55 95 3.0 8.0 0.00 0.00 0.00 60 1019.2
20260504141027 52 0 0.0 3.0 0.00 0.00 0.00 69 1019.0
20260504140524 51 258 0.0 3.0 0.00 0.00 0.00 70 1019.0
20260504130523 47 294 0.0 3.0 0.00 0.00 0.00 75 1018.7
20260504110527 47 294 1.0 3.0 0.00 0.00 0.00 71 1017.8
20260504100525 51 0 1.0 4.0 0.00 0.00 0.00 64 1017.9
20260504081541 50 0 1.0 3.0 0.00 0.00 0.00 63 1018.6
20260504081028 50 294 1.0 3.0 0.00 0.00 0.00 64 1018.7
20260504080525 50 294 1.0 3.0 0.00 0.00 0.00 64 1018.8
20260504050525 47 0 1.0 4.0 0.00 0.00 0.00 59 1019.5
20260504045527 49 0 0.0 0.0 0.00 0.00 0.00 55 1019.5
20260504045026 49 0 0.0 0.0 0.00 0.00 0.00 55 1019.5
20260504044536 50 0 0.0 0.0 0.00 0.00 0.00 53 1019.3
20260504044025 50 0 0.0 0.0 0.00 0.00 0.00 53 1019.3
20260504043531 51 0 0.0 3.0 0.00 0.00 0.00 53 1019.3
20260504043037 51 0 0.0 3.0 0.00 0.00 0.00 52 1019.2
20260504042525 51 74 1.0 3.0 0.00 0.00 0.00 51 1019.1
20260504042026 51 74 0.0 3.0 0.00 0.00 0.00 49 1019.1
20260504041535 51 74 1.0 3.0 0.00 0.00 0.00 47 1019.2
20260504041024 52 74 1.0 3.0 0.00 0.00 0.00 46 1019.1
20260504040528 52 0 0.0 2.0 0.00 0.00 0.00 44 1019.0
20260504040043 52 74 0.0 2.0 0.00 0.00 0.00 43 1019.0
20260504035528 52 0 1.0 2.0 0.00 0.00 0.00 42 1019.0
20260504035026 52 74 0.0 3.0 0.00 0.00 0.00 41 1019.0
20260504034552 52 0 1.0 3.0 0.00 0.00 0.00 40 1018.9
20260504034026 52 74 1.0 3.0 0.00 0.00 0.00 39 1018.9
20260504033523 53 76 0.0 4.0 0.00 0.00 0.00 39 1019.0
20260504033049 53 76 1.0 7.0 0.00 0.00 0.00 39 1018.9
20260504032525 52 81 1.0 7.0 0.00 0.00 0.00 39 1018.9
20260504032025 52 84 1.0 7.0 0.00 0.00 0.00 38 1018.9
20260504031540 53 0 0.0 2.0 0.00 0.00 0.00 36 1018.8
20260504031024 54 0 1.0 2.0 0.00 0.00 0.00 35 1018.7
20260504030523 55 92 0.0 2.0 0.00 0.00 0.00 34 1018.5
20260504030038 56 92 0.0 2.0 0.00 0.00 0.00 33 1018.6
20260504025524 57 92 0.0 2.0 0.00 0.00 0.00 32 1018.5
20260504025025 57 0 0.0 2.0 0.00 0.00 0.00 31 1018.4
20260504024546 58 0 0.0 4.0 0.00 0.00 0.00 30 1018.3
20260504024024 58 0 1.0 6.0 0.00 0.00 0.00 30 1018.3
20260504023524 58 92 1.0 6.0 0.00 0.00 0.00 29 1018.4
20260504023040 59 96 2.0 7.0 0.00 0.00 0.00 29 1018.2
20260504022528 59 83 2.0 8.0 0.00 0.00 0.00 29 1018.2
20260504022024 60 101 2.0 11.0 0.00 0.00 0.00 28 1018.0
20260504021538 60 84 5.0 11.0 0.00 0.00 0.00 28 1018.1
20260504021023 60 120 3.0 8.0 0.00 0.00 0.00 28 1018.1
20260504020525 60 107 3.0 8.0 0.00 0.00 0.00 27 1018.0
20260504020035 61 96 3.0 8.0 0.00 0.00 0.00 28 1018.0
20260504015525 61 107 3.0 10.0 0.00 0.00 0.00 27 1017.9
20260504015028 62 121 4.0 10.0 0.00 0.00 0.00 27 1017.9
20260504014538 62 109 3.0 10.0 0.00 0.00 0.00 27 1017.8
20260504014028 63 112 6.0 15.0 0.00 0.00 0.00 26 1017.7
20260504013524 63 94 7.0 15.0 0.00 0.00 0.00 26 1017.8
20260504013042 64 65 5.0 12.0 0.00 0.00 0.00 26 1017.8
20260504012524 64 75 5.0 12.0 0.00 0.00 0.00 25 1017.9
20260504012025 64 80 4.0 12.0 0.00 0.00 0.00 25 1017.8
20260504011541 65 74 6.0 12.0 0.00 0.00 0.00 25 1017.9
20260504011030 65 49 4.0 11.0 0.00 0.00 0.00 25 1017.9
20260504010526 65 50 7.0 13.0 0.00 0.00 0.00 24 1017.9
20260504010043 65 84 7.0 14.0 0.00 0.00 0.00 24 1018.0
20260504005525 66 74 7.0 14.0 0.00 0.00 0.00 24 1018.0
20260504005024 66 80 6.0 14.0 0.00 0.00 0.00 24 1018.0
20260504004540 66 78 6.0 14.0 0.00 0.00 0.00 24 1018.0
20260504004023 66 44 4.0 14.0 0.00 0.00 0.00 24 1018.0
20260504003525 67 62 4.0 14.0 0.00 0.00 0.00 24 1018.1
20260504003041 66 49 5.0 14.0 0.00 0.00 0.00 24 1018.1
20260504002527 66 69 5.0 14.0 0.00 0.00 0.00 24 1018.3
20260504002025 66 78 3.0 10.0 0.00 0.00 0.00 24 1018.2
20260504001536 67 86 6.0 11.0 0.00 0.00 0.00 23 1018.2
20260504001028 67 63 5.0 11.0 0.00 0.00 0.00 24 1018.2
20260504000524 67 74 5.0 12.0 0.00 0.00 0.00 23 1018.3
20260504000042 67 55 6.0 14.0 0.00 0.00 0.00 23 1018.3
20260503235522 67 64 5.0 14.0 0.00 0.00 0.00 23 1018.3
20260503235024 67 50 7.0 14.0 0.00 0.00 0.00 23 1018.3
20260503234541 67 101 5.0 16.0 0.00 0.00 0.00 23 1018.3
20260503234025 67 83 9.0 16.0 0.00 0.00 0.00 23 1018.4
20260503233528 67 62 6.0 13.0 0.00 0.00 0.00 23 1018.3
20260503233040 67 69 5.0 13.0 0.00 0.00 0.00 23 1018.4
20260503232527 67 86 8.0 15.0 0.00 0.00 0.00 23 1018.5
20260503232025 67 65 7.0 15.0 0.00 0.00 0.00 23 1018.5
20260503231535 67 45 4.0 14.0 0.00 0.00 0.00 24 1018.6
20260503231029 67 84 6.0 16.0 0.00 0.00 0.00 24 1018.7
20260503230525 67 75 4.0 17.0 0.00 0.00 0.00 23 1018.8
20260503230036 67 90 8.0 17.0 0.00 0.00 0.00 23 1019.0
20260503225524 68 65 9.0 17.0 0.00 0.00 0.00 24 1019.0
20260503225027 67 82 7.0 16.0 0.00 0.00 0.00 24 1019.0
20260503224535 67 78 9.0 17.0 0.00 0.00 0.00 23 1019.2
20260503224025 67 51 9.0 17.0 0.00 0.00 0.00 23 1019.3
20260503223525 68 98 6.0 16.0 0.00 0.00 0.00 23 1019.5